Voltar ao catálogo

STARLINK-34465

AtivoComunicaçõesVLEO
NORAD 64438·PAYLOAD·🇺🇸 United States

Lançado Jun 18, 2025 de Cape Canaveral Space Force Station

Loading…

Próximas Passagens (próximas 24 horas)

TLE

AtualizadoSource: CelesTrak SupGP

Época: Sep 14, 2026, 14:16 UTC

1 64438C 25130A   26257.59493056  .00030124  00000+0  89025-3 0  2572
2 64438  53.1571 287.5926 0001201  83.3687 317.6361 15.34367850    17

Acompanhe STARLINK-34465 em tempo real com AllMySat

Download on the App Store